Location: Hamilton
(37.7830°S, 175.2830°E)
Time: 09:06:03
(UTC+13:00)

Cosmos 1515 Rocket - Pass Details

Date: 24 January 2019
Orbit: 607 x 629 km, 82.5° (Epoch: 16 February)

Event Time Altitude Azimuth Distance (km) Brightness Sun altitude
Exits shadow 21:23:48 - 13° (NNE) 2,710 6.4 -8.7°
Reaches altitude 10° 21:25:37 10° 19° (NNE) 2,013 5.7 -9.0°
Maximum altitude 21:29:47 40° 88° (E) 945 4.1 -9.7°
Drops below altitude 10° 21:34:01 10° 157° (SSE) 2,039 6.4 -10.4°
Sets 21:36:22 0° 164° (SSE) 2,954 7.3 -10.8°
